EW2337 Weather Reports


time (UTC)temp
F
wind
direction
speed
knots
gust
knots
rain 1hr
in
rain 24hr
in
rain mn
in
humidity
%
barometer
mb
20260504110503 49 252 0.9 3.5 0.00 0.00 0.00 80 1017.4
20260504110351 49 255 0.9 1.7 0.00 0.00 0.00 80 1016.3
20260504100503 46 257 0.0 0.9 0.00 0.00 0.00 81 1017.6
20260504100308 46 253 0.0 0.0 0.00 0.00 0.00 81 1016.6
20260504081702 46 249 0.0 0.0 0.00 0.00 0.00 76 1016.8
20260504081503 47 250 0.9 1.7 0.00 0.00 0.00 76 1017.6
20260504081158 47 249 0.0 1.7 0.00 0.00 0.00 76 1016.6
20260504081003 47 254 0.9 1.7 0.00 0.00 0.00 76 1017.3
20260504080655 47 268 1.7 1.7 0.00 0.00 0.00 76 1016.7
20260504080503 47 252 0.9 1.7 0.00 0.00 0.00 76 1017.4
20260504080152 47 257 0.9 1.7 0.00 0.00 0.00 76 1016.7
20260504070119 48 251 0.9 1.7 0.00 0.00 0.00 72 1016.4
20260504050508 49 243 1.7 4.3 0.00 0.00 0.00 65 1016.3
20260504050503 49 251 1.7 3.5 0.00 0.00 0.00 65 1016.9
20260504050005 49 226 1.7 4.3 0.00 0.00 0.00 64 1016.4
20260504050003 49 249 1.7 3.5 0.00 0.00 0.00 64 1017.0
20260504045503 49 250 1.7 3.5 0.00 0.00 0.00 64 1017.3
20260504045500 49 254 2.6 4.3 0.00 0.00 0.00 64 1016.2
20260504045004 49 253 0.9 2.6 0.00 0.00 0.00 63 1017.2
20260504044957 50 226 2.6 2.6 0.00 0.00 0.00 63 1016.5
20260504044504 50 244 1.7 6.1 0.00 0.00 0.00 63 1017.1
20260504044454 50 256 0.0 0.9 0.00 0.00 0.00 63 1016.3
20260504044024 50 243 2.6 6.1 0.00 0.00 0.00 62 1017.3
20260504043952 50 264 3.5 6.1 0.00 0.00 0.00 62 1016.5
20260504043503 50 248 1.7 3.5 0.00 0.00 0.00 62 1017.0
20260504043449 50 233 2.6 2.6 0.00 0.00 0.00 62 1016.3
20260504043003 50 249 1.7 2.6 0.00 0.00 0.00 61 1016.8
20260504042946 50 249 1.7 1.7 0.00 0.00 0.00 61 1016.1
20260504042503 51 246 1.7 2.6 0.00 0.00 0.00 60 1016.9
20260504042442 51 256 1.7 1.7 0.00 0.00 0.00 59 1016.2
20260504042003 51 248 1.7 2.6 0.00 0.00 0.00 58 1016.9
20260504041939 51 252 1.7 2.6 0.00 0.00 0.00 58 1016.2
20260504041503 51 251 1.7 5.2 0.00 0.00 0.00 58 1016.9
20260504041436 51 245 1.7 2.6 0.00 0.00 0.00 58 1016.1
20260504041003 51 250 2.6 5.2 0.00 0.00 0.00 57 1016.7
20260504040931 51 263 0.9 2.6 0.00 0.00 0.00 57 1016.0
20260504040524 51 248 2.6 5.2 0.00 0.00 0.00 57 1017.1
20260504040429 51 275 2.6 2.6 0.00 0.00 0.00 56 1016.0
20260504040005 51 248 1.7 3.5 0.00 0.00 0.00 57 1016.7
20260504035925 51 256 0.9 2.6 0.00 0.00 0.00 57 1015.9
20260504035503 51 252 1.7 3.5 0.00 0.00 0.00 57 1016.7
20260504035423 51 259 2.6 2.6 0.00 0.00 0.00 57 1015.9
20260504035003 51 251 0.9 5.2 0.00 0.00 0.00 57 1016.7
20260504034919 51 227 1.7 4.3 0.00 0.00 0.00 57 1015.8
20260504034503 50 249 0.9 5.2 0.00 0.00 0.00 57 1016.4
20260504034417 50 256 2.6 5.2 0.00 0.00 0.00 57 1015.7
20260504034003 51 250 1.7 3.5 0.00 0.00 0.00 57 1016.5
20260504033914 51 257 1.7 1.7 0.00 0.00 0.00 58 1015.7
20260504033503 50 252 0.9 2.6 0.00 0.00 0.00 58 1016.8
20260504033412 50 243 1.7 2.6 0.00 0.00 0.00 58 1015.8
20260504033003 50 260 0.0 1.7 0.00 0.00 0.00 59 1016.5
20260504032908 50 247 0.0 0.0 0.00 0.00 0.00 59 1015.8
20260504032503 50 260 0.0 1.7 0.00 0.00 0.00 59 1016.4
20260504032405 50 252 0.0 0.0 0.00 0.00 0.00 59 1015.7
20260504032003 49 259 0.0 1.7 0.00 0.00 0.00 60 1016.6
20260504031902 49 259 0.9 1.7 0.00 0.00 0.00 60 1015.6
20260504031503 49 0 0.0 0.0 0.00 0.00 0.00 60 1016.7
20260504031359 50 246 0.0 0.0 0.00 0.00 0.00 60 1015.7
20260504031003 49 0 0.0 0.0 0.00 0.00 0.00 60 1016.5
20260504030855 49 261 0.0 0.0 0.00 0.00 0.00 61 1015.5
20260504030503 49 0 0.0 0.0 0.00 0.00 0.00 62 1016.4
20260504030353 49 251 0.0 0.0 0.00 0.00 0.00 62 1015.8
20260504030003 49 0 0.0 0.0 0.00 0.00 0.00 62 1016.6
20260504025848 49 252 0.0 0.0 0.00 0.00 0.00 62 1015.6
20260504025503 49 0 0.0 0.0 0.00 0.00 0.00 62 1016.3
20260504025345 49 255 0.0 0.0 0.00 0.00 0.00 62 1015.6
20260504025003 49 0 0.0 0.0 0.00 0.00 0.00 63 1016.6
20260504024842 49 250 0.0 0.0 0.00 0.00 0.00 62 1015.8
20260504024503 49 0 0.0 0.0 0.00 0.00 0.00 63 1016.5
20260504024338 49 257 0.0 0.0 0.00 0.00 0.00 63 1015.7
20260504024003 49 0 0.0 0.0 0.00 0.00 0.00 64 1016.7
20260504023836 49 257 0.0 0.0 0.00 0.00 0.00 63 1015.5
20260504023503 49 0 0.0 0.0 0.00 0.00 0.00 62 1016.7
20260504023333 49 251 0.0 0.0 0.00 0.00 0.00 62 1015.5
20260504023003 50 0 0.0 0.0 0.00 0.00 0.00 62 1016.5
20260504022828 50 258 0.0 0.0 0.00 0.00 0.00 61 1015.8
20260504022503 50 0 0.0 0.0 0.00 0.00 0.00 60 1016.7
20260504022325 50 257 0.0 0.0 0.00 0.00 0.00 61 1015.7
20260504022003 50 0 0.0 0.0 0.00 0.00 0.00 60 1016.5
20260504021822 50 257 0.0 0.0 0.00 0.00 0.00 59 1015.6
20260504021524 50 0 0.0 0.0 0.00 0.00 0.00 57 1016.6
20260504021319 50 253 0.0 0.0 0.00 0.00 0.00 59 1015.7
20260504021003 50 0 0.0 0.0 0.00 0.00 0.00 60 1016.7
20260504020816 50 254 0.0 0.0 0.00 0.00 0.00 60 1015.7
20260504020503 50 0 0.0 0.0 0.00 0.00 0.00 59 1016.7
20260504020313 51 252 0.0 0.0 0.00 0.00 0.00 59 1015.7
20260504020003 51 0 0.0 0.0 0.00 0.00 0.00 58 1016.5
20260504015809 51 251 0.0 0.0 0.00 0.00 0.00 57 1015.6
20260504015503 51 0 0.0 0.0 0.00 0.00 0.00 55 1016.5
20260504015305 51 251 0.0 0.0 0.00 0.00 0.00 56 1015.6
20260504015024 51 0 0.0 0.0 0.00 0.00 0.00 56 1016.4
20260504014801 51 255 0.0 0.0 0.00 0.00 0.00 57 1015.5
20260504014503 51 0 0.0 0.0 0.00 0.00 0.00 57 1016.3
20260504014257 51 254 0.0 0.0 0.00 0.00 0.00 58 1015.3
20260504014003 51 0 0.0 0.0 0.00 0.00 0.00 58 1016.4
20260504013755 51 250 0.0 0.0 0.00 0.00 0.00 58 1015.5
20260504013503 51 0 0.0 0.0 0.00 0.00 0.00 57 1016.4
20260504013253 51 250 0.0 0.0 0.00 0.00 0.00 57 1015.6
20260504013003 51 0 0.0 0.0 0.00 0.00 0.00 58 1016.3
20260504012749 51 250 0.0 0.0 0.00 0.00 0.00 59 1015.6
20260504012524 51 0 0.0 0.0 0.00 0.00 0.00 59 1016.4
20260504012247 51 247 0.0 0.0 0.00 0.00 0.00 58 1015.6
20260504012003 51 0 0.0 0.0 0.00 0.00 0.00 58 1016.1
20260504011744 51 250 0.0 0.0 0.00 0.00 0.00 56 1015.3
20260504011503 51 0 0.0 0.0 0.00 0.00 0.00 56 1016.2
20260504011240 51 250 0.0 0.0 0.00 0.00 0.00 54 1015.2
20260504011003 51 0 0.0 0.0 0.00 0.00 0.00 55 1016.0
20260504010737 51 250 0.0 0.0 0.00 0.00 0.00 56 1015.2
20260504010503 51 0 0.0 0.0 0.00 0.00 0.00 55 1016.1
20260504010232 51 250 0.0 0.0 0.00 0.00 0.00 56 1015.2
20260504010004 52 0 0.0 0.0 0.00 0.00 0.00 56 1016.0
20260504005729 52 249 0.0 0.0 0.00 0.00 0.00 56 1015.1
20260504005503 52 0 0.0 0.0 0.00 0.00 0.00 55 1015.9
20260504005226 52 247 0.0 0.0 0.00 0.00 0.00 55 1014.9
20260504005004 52 0 0.0 0.0 0.00 0.00 0.00 54 1015.8
20260504004724 53 249 0.0 0.0 0.00 0.00 0.00 54 1014.8
20260504004503 53 0 0.0 0.0 0.00 0.00 0.00 53 1015.9
20260504004220 53 250 0.0 0.0 0.00 0.00 0.00 51 1015.0
20260504004003 53 0 0.0 0.0 0.00 0.00 0.00 51 1016.0
20260504003718 54 250 0.0 0.0 0.00 0.00 0.00 50 1014.9
20260504003503 54 0 0.0 0.0 0.00 0.00 0.00 50 1015.7
20260504003214 55 250 0.0 0.0 0.00 0.00 0.00 47 1014.9
20260504003003 55 246 0.0 0.9 0.00 0.00 0.00 46 1015.5
20260504002711 55 251 0.0 0.0 0.00 0.00 0.00 45 1014.9
20260504002503 56 245 0.0 1.7 0.00 0.00 0.00 45 1015.6
20260504002208 56 246 0.0 0.0 0.00 0.00 0.00 44 1014.7
20260504002003 56 244 0.9 2.6 0.00 0.00 0.00 43 1015.7
20260504001706 57 247 0.0 1.7 0.00 0.00 0.00 43 1014.7
20260504001524 57 245 1.7 3.5 0.00 0.00 0.00 42 1015.5
20260504001202 57 239 1.7 1.7 0.00 0.00 0.00 42 1014.6
20260504001003 57 247 0.9 3.5 0.00 0.00 0.00 42 1015.3
20260504000659 57 225 0.9 1.7 0.00 0.00 0.00 41 1014.4
20260504000503 57 247 0.9 2.6 0.00 0.00 0.00 42 1015.4
20260504000156 57 248 0.0 0.9 0.00 0.00 0.00 41 1014.4
20260504000003 57 249 0.9 2.6 0.00 0.00 0.00 42 1015.1
20260503235654 58 250 0.0 2.6 0.00 0.00 0.00 41 1014.5
20260503235503 58 246 1.7 5.2 0.00 0.00 0.00 40 1015.2
20260503235151 58 253 0.9 4.3 0.00 0.00 0.00 40 1014.5
20260503235003 58 244 0.9 5.2 0.00 0.00 0.00 39 1015.0
20260503234649 58 245 0.9 1.7 0.00 0.00 0.00 40 1014.4
20260503234503 58 245 0.9 5.2 0.00 0.00 0.00 39 1015.3
20260503234147 58 248 0.0 0.9 0.00 0.00 0.00 40 1014.6
20260503234003 58 246 1.7 5.2 0.00 0.00 0.00 40 1015.2
20260503233643 59 235 0.9 2.6 0.00 0.00 0.00 38 1014.3
20260503233503 59 242 1.7 5.2 0.00 0.00 0.00 39 1015.1
20260503233139 59 241 2.6 4.3 0.00 0.00 0.00 38 1014.5
20260503233003 59 239 2.6 8.7 0.00 0.00 0.00 37 1015.1
20260503232636 59 247 0.9 4.3 0.00 0.00 0.00 38 1014.2
20260503232503 59 243 3.5 8.7 0.00 0.00 0.00 37 1015.1
20260503232133 59 247 3.5 7.0 0.00 0.00 0.00 36 1014.3
20260503232003 59 240 3.5 11.3 0.00 0.00 0.00 37 1015.1
20260503231631 59 250 2.6 7.8 0.00 0.00 0.00 37 1014.2
20260503231503 59 236 3.5 11.3 0.00 0.00 0.00 37 1015.1
20260503231127 60 244 2.6 4.3 0.00 0.00 0.00 37 1014.2
20260503231003 60 242 2.6 7.8 0.00 0.00 0.00 37 1015.0
20260503230625 59 235 0.9 4.3 0.00 0.00 0.00 37 1014.1
20260503230503 59 248 1.7 6.1 0.00 0.00 0.00 38 1014.9
20260503230122 59 258 4.3 5.2 0.00 0.00 0.00 37 1014.0
20260503230003 59 246 1.7 7.0 0.00 0.00 0.00 37 1015.0
20260503225619 60 246 3.5 4.3 0.00 0.00 0.00 37 1014.2
20260503225503 60 241 2.6 8.7 0.00 0.00 0.00 37 1014.9
20260503225118 60 245 0.9 1.7 0.00 0.00 0.00 37 1014.2
20260503225003 60 244 3.5 9.6 0.00 0.00 0.00 37 1014.9
20260503224616 60 249 1.7 7.0 0.00 0.00 0.00 37 1014.1
20260503224503 60 246 2.6 9.6 0.00 0.00 0.00 36 1015.1
20260503224114 60 228 2.6 9.6 0.00 0.00 0.00 36 1014.2
20260503224003 60 247 1.7 6.1 0.00 0.00 0.00 36 1014.9
20260503223612 60 239 1.7 2.6 0.00 0.00 0.00 37 1014.2
20260503223503 60 251 1.7 6.1 0.00 0.00 0.00 36 1015.1
20260503223108 60 280 2.6 4.3 0.00 0.00 0.00 36 1014.2
20260503223003 60 252 1.7 7.0 0.00 0.00 0.00 36 1015.0
20260503222606 60 340 2.6 7.0 0.00 0.00 0.00 35 1014.0
20260503222503 61 251 2.6 7.0 0.00 0.00 0.00 34 1015.0
20260503222103 61 242 3.5 6.1 0.00 0.00 0.00 34 1014.4
20260503222003 61 247 2.6 7.8 0.00 0.00 0.00 35 1014.8
20260503221601 61 263 4.3 4.3 0.00 0.00 0.00 34 1014.1
20260503221503 61 252 3.5 11.3 0.00 0.00 0.00 34 1015.1
20260503221059 61 215 2.6 7.0 0.00 0.00 0.00 34 1014.2
20260503221024 61 253 4.3 12.2 0.00 0.00 0.00 34 1015.1
20260503220555 61 259 7.8 11.3 0.00 0.00 0.00 34 1014.3
20260503220503 61 252 3.5 12.2 0.00 0.00 0.00 34 1015.1
20260503220052 62 229 2.6 7.0 0.00 0.00 0.00 35 1014.1
20260503220003 62 253 2.6 9.6 0.00 0.00 0.00 35 1015.1
20260503215549 62 268 1.7 9.6 0.00 0.00 0.00 35 1014.2
20260503215524 62 249 3.5 11.3 0.00 0.00 0.00 35 1015.0
20260503215046 62 231 1.7 6.1 0.00 0.00 0.00 34 1014.2
20260503215003 62 248 3.5 12.2 0.00 0.00 0.00 34 1014.9
20260503214544 61 239 3.5 7.8 0.00 0.00 0.00 33 1014.1
20260503214503 61 249 2.6 12.2 0.00 0.00 0.00 34 1014.9
20260503214040 62 242 2.6 4.3 0.00 0.00 0.00 34 1014.2
20260503214003 62 249 2.6 11.3 0.00 0.00 0.00 35 1015.2
20260503213539 62 226 1.7 4.3 0.00 0.00 0.00 35 1014.1
20260503213503 62 250 5.2 13.9 0.00 0.00 0.00 36 1015.0
20260503213035 61 223 7.8 13.9 0.00 0.00 0.00 34 1014.2
20260503213003 61 247 4.3 13.9 0.00 0.00 0.00 34 1015.1
20260503212532 62 262 1.7 8.7 0.00 0.00 0.00 34 1014.2
20260503212503 62 246 3.5 8.7 0.00 0.00 0.00 34 1015.1
20260503212030 62 243 3.5 7.0 0.00 0.00 0.00 34 1014.0
20260503212024 62 247 3.5 11.3 0.00 0.00 0.00 34 1014.9
20260503211527 61 228 2.6 8.7 0.00 0.00 0.00 35 1014.3
20260503211524 61 242 3.5 11.3 0.00 0.00 0.00 35 1014.9
20260503211022 62 248 2.6 7.8 0.00 0.00 0.00 35 1014.3
20260503211003 62 244 3.5 9.6 0.00 0.00 0.00 34 1015.0
20260503210524 62 247 3.5 9.6 0.00 0.00 0.00 33 1014.7
20260503210519 62 233 7.0 8.7 0.00 0.00 0.00 33 1014.0
20260503210015 62 256 1.7 7.8 0.00 0.00 0.00 35 1014.2
20260503210003 62 251 2.6 12.2 0.00 0.00 0.00 35 1015.0
20260503205512 62 283 0.9 12.2 0.00 0.00 0.00 36 1014.4
20260503205503 61 249 3.5 15.6 0.00 0.00 0.00 38 1015.1
20260503205008 61 254 3.5 9.6 0.00 0.00 0.00 34 1014.4
20260503205003 61 246 3.5 15.6 0.00 0.00 0.00 37 1014.9
20260503204505 61 235 0.0 5.2 0.00 0.00 0.00 36 1014.4
20260503204503 61 245 3.5 14.8 0.00 0.00 0.00 36 1015.1
20260503204002 60 260 1.7 6.1 0.00 0.00 0.00 35 1014.4
20260503203502 61 255 3.5 9.6 0.00 0.00 0.00 35 1015.1
20260503203459 61 247 5.2 7.0 0.00 0.00 0.00 35 1014.4
20260503203024 61 250 4.3 13.9 0.00 0.00 0.00 35 1015.4
20260503202956 61 259 4.3 9.6 0.00 0.00 0.00 37 1014.5
20260503202503 60 250 5.2 13.9 0.00 0.00 0.00 36 1015.2
20260503202454 60 275 2.6 13.9 0.00 0.00 0.00 36 1014.5
20260503202024 60 249 4.3 12.2 0.00 0.00 0.00 35 1015.4
20260503201952 60 254 6.1 11.3 0.00 0.00 0.00 36 1014.5
20260503201503 60 244 4.3 13.9 0.00 0.00 0.00 37 1015.5
20260503201449 60 277 5.2 11.3 0.00 0.00 0.00 36 1014.3
20260503201003 60 245 4.3 18.2 0.00 0.00 0.00 37 1015.7
20260503200947 60 272 7.0 8.7 0.00 0.00 0.00 36 1014.6
20260503200524 60 259 4.3 18.2 0.00 0.00 0.00 37 1015.5
20260503200443 60 247 1.7 8.7 0.00 0.00 0.00 37 1014.6
20260503200003 60 258 5.2 13.0 0.00 0.00 0.00 37 1015.4
20260503195940 60 255 3.5 9.6 0.00 0.00 0.00 36 1014.5
20260503195503 60 248 4.3 13.0 0.00 0.00 0.00 37 1015.5
20260503195437 60 247 4.3 6.1 0.00 0.00 0.00 36 1014.6
20260503195003 61 252 3.5 12.2 0.00 0.00 0.00 36 1015.7
20260503194933 61 248 6.1 7.8 0.00 0.00 0.00 37 1014.7
20260503194503 60 264 2.6 8.7 0.00 0.00 0.00 37 1015.4
20260503194430 60 258 2.6 5.2 0.00 0.00 0.00 39 1014.7
20260503194003 60 257 3.5 12.2 0.00 0.00 0.00 37 1015.4
20260503193926 60 270 0.9 6.1 0.00 0.00 0.00 40 1014.8
20260503193503 61 252 2.6 12.2 0.00 0.00 0.00 35 1015.5
20260503193421 61 227 3.5 8.7 0.00 0.00 0.00 37 1015.0
20260503193003 60 246 3.5 12.2 0.00 0.00 0.00 37 1015.7
20260503192917 60 231 2.6 4.3 0.00 0.00 0.00 36 1015.0
20260503192503 60 247 4.3 13.0 0.00 0.00 0.00 36 1015.5
20260503192414 60 245 2.6 7.8 0.00 0.00 0.00 38 1014.8
20260503192003 60 253 3.5 13.0 0.00 0.00 0.00 37 1015.8
20260503191910 60 244 4.3 13.0 0.00 0.00 0.00 39 1014.9
20260503191503 59 253 4.3 13.0 0.00 0.00 0.00 37 1015.5
20260503191408 59 263 2.6 6.1 0.00 0.00 0.00 40 1014.8
20260503191003 59 252 4.3 12.2 0.00 0.00 0.00 36 1015.8
20260503190903 59 214 2.6 12.2 0.00 0.00 0.00 38 1015.0
20260503190503 60 248 3.5 9.6 0.00 0.00 0.00 36 1015.9
20260503190401 60 277 2.6 7.8 0.00 0.00 0.00 37 1015.1
20260503190003 59 243 4.3 12.2 0.00 0.00 0.00 37 1015.8
20260503185857 59 240 4.3 8.7 0.00 0.00 0.00 36 1014.9
20260503185503 59 246 5.2 13.9 0.00 0.00 0.00 37 1016.0
20260503185354 59 251 5.2 9.6 0.00 0.00 0.00 37 1015.1
20260503185003 59 254 4.3 13.9 0.00 0.00 0.00 36 1016.0
20260503184854 59 237 7.8 13.9 0.00 0.00 0.00 37 1015.2
20260503184503 59 255 3.5 13.9 0.00 0.00 0.00 35 1015.8
20260503184350 59 240 5.2 7.8 0.00 0.00 0.00 36 1015.1
20260503184003 60 245 3.5 13.0 0.00 0.00 0.00 37 1015.9
20260503183846 59 261 2.6 6.1 0.00 0.00 0.00 36 1015.2
20260503183503 58 248 4.3 13.9 0.00 0.00 0.00 37 1015.9
20260503183343 58 242 8.7 11.3 0.00 0.00 0.00 35 1015.3
20260503183003 59 249 3.5 13.9 0.00 0.00 0.00 36 1015.9
20260503182840 59 295 5.2 7.8 0.00 0.00 0.00 37 1015.4
20260503182503 59 253 2.6 9.6 0.00 0.00 0.00 37 1015.9
20260503182340 59 269 2.6 8.7 0.00 0.00 0.00 36 1015.2
20260503182003 59 257 2.6 12.2 0.00 0.00 0.00 34 1016.1
20260503181836 59 185 1.7 4.3 0.00 0.00 0.00 34 1015.5
20260503181504 59 257 3.5 12.2 0.00 0.00 0.00 36 1016.1
20260503181333 59 271 6.1 12.2 0.00 0.00 0.00 36 1015.3
20260503181024 58 254 2.6 8.7 0.00 0.00 0.00 37 1016.0
20260503180830 58 252 1.7 6.1 0.00 0.00 0.00 37 1015.5
20260503180503 58 248 2.6 9.6 0.00 0.00 0.00 37 1016.0
20260503180328 57 140 2.6 6.1 0.00 0.00 0.00 39 1015.4
20260503180003 57 251 2.6 9.6 0.00 0.00 0.00 40 1016.1
20260503175824 57 229 1.7 7.0 0.00 0.00 0.00 37 1015.5
20260503175503 58 248 3.5 9.6 0.00 0.00 0.00 40 1016.1
20260503175322 57 260 3.5 8.7 0.00 0.00 0.00 40 1015.2
20260503175024 57 244 3.5 9.6 0.00 0.00 0.00 39 1016.2
20260503174817 58 245 2.6 9.6 0.00 0.00 0.00 38 1015.5
20260503174503 58 246 3.5 8.7 0.00 0.00 0.00 39 1016.1
20260503174316 57 260 4.3 6.1 0.00 0.00 0.00 39 1015.6
20260503174003 57 242 3.5 13.9 0.00 0.00 0.00 39 1016.2
20260503173811 57 254 7.0 8.7 0.00 0.00 0.00 37 1015.6
20260503173503 57 235 3.5 13.9 0.00 0.00 0.00 38 1016.4
20260503173307 58 273 2.6 7.8 0.00 0.00 0.00 40 1015.4
20260503173003 58 245 2.6 9.6 0.00 0.00 0.00 39 1016.6
20260503172804 57 268 0.9 9.6 0.00 0.00 0.00 41 1015.7
20260503172503 56 253 3.5 9.6 0.00 0.00 0.00 40 1016.5
20260503172302 57 263 2.6 9.6 0.00 0.00 0.00 40 1015.8
20260503172003 57 255 3.5 9.6 0.00 0.00 0.00 40 1016.5
20260503171757 56 239 1.7 9.6 0.00 0.00 0.00 41 1015.6
20260503171503 55 245 4.3 12.2 0.00 0.00 0.00 41 1016.7
20260503171255 55 274 2.6 4.3 0.00 0.00 0.00 40 1015.7
20260503171003 54 235 4.3 12.2 0.00 0.00 0.00 40 1016.6
20260503170752 56 232 7.8 12.2 0.00 0.00 0.00 38 1015.9
20260503170524 58 238 2.6 12.2 0.00 0.00 0.00 39 1016.4
20260503170248 57 242 1.7 6.1 0.00 0.00 0.00 46 1015.8
20260503160210 54 264 4.3 7.8 0.00 0.00 0.00 44 1016.1
20260503151003 54 263 2.6 7.0 0.00 0.00 0.00 47 1016.9
20260503150641 54 278 2.6 5.2 0.00 0.00 0.00 47 1016.3
20260503150503 54 256 2.6 7.0 0.00 0.00 0.00 47 1016.9
20260503150137 54 229 2.6 5.2 0.00 0.00 0.00 50 1016.0
20260503131030 50 229 0.0 1.7 0.00 0.00 0.00 56 1015.6
20260503131003 49 254 1.7 7.8 0.00 0.00 0.00 56 1016.7
20260503130527 49 250 4.3 7.8 0.00 0.00 0.00 55 1015.9
20260503130524 49 253 2.6 7.8 0.00 0.00 0.00 55 1016.5